Location: Brno
(49.2000°N, 16.6330°E)
Time: 18:20:14
(UTC+02:00)

Transit 4A - Pass Details

Date: 04 August 2021
Orbit: 871 x 974 km, 66.8° (Epoch: 16 September)

Event Time Altitude Azimuth Distance (km) Brightness Sun altitude
Rises 02:47:12 0° 269° (W) 3,473 - -19.4°
Exits shadow 02:47:59 - 273° (W) 3,224 10.5 -19.4°
Reaches altitude 10° 02:50:22 10° 286° (WNW) 2,528 10.1 -19.2°
Maximum altitude 02:54:40 21° 334° (NNW) 1,876 9.9 -18.8°
Drops below altitude 10° 02:58:59 10° 22° (NNE) 2,531 11.4 -18.5°
Sets 03:02:09 0° 38° (NE) 3,477 12.6 -18.2°
